Weather History for Gustavus, AK

Change the Weather History Date:

Monday, January 7, 2013

  Actual Average Record
Temperature  
Mean Temperature 35 °F -  
Max Temperature 37 °F 29 °F 53 °F (2001)
Min Temperature 33 °F 19 °F -7 °F (1950)
Degree Days  
Heating Degree Days 30    
Moisture  
Dew Point 31 °F    
Average Humidity 85    
Maximum Humidity 93    
Minimum Humidity 81    
Precipitation  
Precipitation 0.00 in - - ()
Sea Level Pressure  
Sea Level Pressure 29.46 in    
Wind  
Wind Speed 5 mph (ESE)    
Max Wind Speed 13 mph    
Max Gust Speed -    
Visibility 7 miles    
Events      
Averages and records for this station are not official NWS values.
T = Trace of Precipitation, MM = Missing Value Source: NWS Daily Summary

Daily Weather History Graph

Daily Weather History Graph

Search for Another Location

Airport:

Trip Planner

Search our weather history database for the weather conditions in past years. The results will help you decide how hot, cold, wet, or windy it might be!

Date:

Astronomy

Jan. 07, 2013 Rise Set
Actual Time 8:47 AM AKST 3:31 PM AKST
Civil Twilight 7:56 AM AKST 4:22 PM AKST
Nautical Twilight 7:04 AM AKST 5:14 PM AKST
Astronomical Twilight 6:15 AM AKST 6:03 PM AKST
Moon 4:04 AM AKST (1/7) 12:00 PM AKST (1/7)
Length of Visible Light 8h 26m
Length of Day
6h 44m
Waning Crescent, 21% of the Moon is Illuminated
Jan 7
Waning Crescent
Jan 11
New
Jan 18
First Quarter
Jan 26
Full
Feb 3
Last Quarter

Hourly Weather History & Observations

Time (AKST) Temp. Windchill Dew Point Humidity Pressure Visibility Wind Dir Wind Speed Gust Speed Precip Events Conditions
12:16 AM 33.8 °F 27.7 °F 30.2 °F 87% 29.39 in 10.0 mi NNW 6.9 mph - N/A   Overcast
12:36 AM 33.8 °F 27.7 °F 30.2 °F 87% 29.38 in 10.0 mi NW 6.9 mph - N/A   Overcast
12:56 AM 33.8 °F 27.7 °F 30.2 °F 87% 29.38 in 10.0 mi NNW 6.9 mph - N/A   Overcast
1:16 AM 33.8 °F 28.6 °F 30.2 °F 87% 29.37 in 10.0 mi NNW 5.8 mph - N/A   Overcast
1:36 AM 33.8 °F 27.7 °F 30.2 °F 87% 29.36 in 10.0 mi NNW 6.9 mph - N/A   Overcast
1:56 AM 33.8 °F 28.6 °F 30.2 °F 87% 29.35 in 10.0 mi NW 5.8 mph - N/A   Overcast
2:16 AM 33.8 °F 29.6 °F 30.2 °F 87% 29.36 in 8.0 mi NW 4.6 mph - N/A   Overcast
2:36 AM 33.8 °F 28.6 °F 30.2 °F 87% 29.35 in 5.0 mi NW 5.8 mph - N/A   Overcast
2:56 AM 33.8 °F 30.8 °F 30.2 °F 87% 29.35 in 5.0 mi NNW 3.5 mph - N/A   Overcast
3:16 AM 33.8 °F 29.6 °F 30.2 °F 87% 29.34 in 5.0 mi NW 4.6 mph - N/A   Overcast
3:36 AM 33.8 °F 30.8 °F 30.2 °F 87% 29.35 in 6.0 mi NW 3.5 mph - N/A   Overcast
3:56 AM 33.8 °F 30.8 °F 30.2 °F 87% 29.34 in 4.0 mi NNW 3.5 mph - N/A   Overcast
4:16 AM 33.8 °F 30.8 °F 30.2 °F 87% 29.34 in 3.0 mi NNW 3.5 mph - N/A   Overcast
4:36 AM 33.8 °F - 30.2 °F 87% 29.34 in 2.5 mi Calm Calm - N/A   Overcast
4:56 AM 33.8 °F - 30.2 °F 87% 29.34 in 5.0 mi Calm Calm - N/A   Overcast
5:16 AM 33.8 °F - 30.2 °F 87% 29.34 in 9.0 mi Calm Calm - N/A   Overcast
5:36 AM 33.8 °F - 30.2 °F 87% 29.35 in 4.0 mi Calm Calm - N/A   Overcast
5:56 AM 33.8 °F - 30.2 °F 87% 29.35 in 2.0 mi Calm Calm - N/A   Overcast
6:16 AM 33.8 °F - 30.2 °F 87% 29.35 in 2.5 mi Calm Calm - N/A   Overcast
6:36 AM 33.8 °F - 30.2 °F 87% 29.35 in 2.0 mi Calm Calm - N/A   Overcast
6:56 AM 33.8 °F - 30.2 °F 87% 29.36 in 2.0 mi Calm Calm - N/A   Overcast
7:16 AM 33.8 °F - 30.2 °F 87% 29.36 in 1.8 mi Calm Calm - N/A   Overcast
7:36 AM 33.8 °F - 30.2 °F 87% 29.37 in 2.0 mi Calm Calm - N/A   Overcast
7:56 AM 33.8 °F - 30.2 °F 87% 29.38 in 3.0 mi Calm Calm - N/A   Overcast
8:16 AM 33.8 °F - 28.4 °F 81% 29.39 in 3.0 mi Calm Calm - N/A   Overcast
8:36 AM 33.8 °F - 30.2 °F 87% 29.40 in 2.5 mi Calm Calm - N/A   Overcast
8:56 AM 33.8 °F - 28.4 °F 81% 29.41 in 10.0 mi Calm Calm - N/A   Overcast
9:16 AM 33.8 °F - 30.2 °F 87% 29.42 in 1.2 mi Calm Calm - N/A   Overcast
9:36 AM 33.8 °F - 30.2 °F 87% 29.42 in 0.8 mi Calm Calm - N/A   Overcast
9:56 AM 33.8 °F 29.6 °F 30.2 °F 87% 29.42 in 5.0 mi ESE 4.6 mph - N/A   Overcast
10:16 AM 33.8 °F 29.6 °F 30.2 °F 87% 29.43 in 10.0 mi SSE 4.6 mph - N/A   Overcast
10:36 AM 33.8 °F 28.6 °F 30.2 °F 87% 29.44 in 10.0 mi SE 5.8 mph - N/A   Overcast
10:56 AM 35.6 °F 28.6 °F 30.2 °F 81% 29.44 in 10.0 mi ESE 9.2 mph - N/A   Overcast
11:16 AM 35.6 °F 29.2 °F 32.0 °F 87% 29.45 in 10.0 mi ESE 8.1 mph - N/A   Overcast
11:36 AM 35.6 °F 30.7 °F 30.2 °F 81% 29.46 in 10.0 mi SE 5.8 mph - N/A   Overcast
11:56 AM 35.6 °F 29.2 °F 32.0 °F 87% 29.46 in 10.0 mi ESE 8.1 mph - N/A   Overcast
12:16 PM 35.6 °F 28.6 °F 32.0 °F 87% 29.46 in 10.0 mi ESE 9.2 mph - N/A   Overcast
12:36 PM 35.6 °F 29.2 °F 33.8 °F 93% 29.45 in 10.0 mi ESE 8.1 mph - N/A   Overcast
12:56 PM 35.6 °F 29.2 °F 32.0 °F 87% 29.47 in 10.0 mi ESE 8.1 mph - N/A   Overcast
1:16 PM 35.6 °F - 30.2 °F 81% 29.49 in 3.0 mi Calm Calm - N/A   Overcast
1:36 PM 33.8 °F 29.6 °F 30.2 °F 87% 29.49 in 2.5 mi SSE 4.6 mph - N/A   Overcast
2:16 PM 33.8 °F 27.7 °F 30.2 °F 87% 29.50 in 3.0 mi East 6.9 mph - N/A   Overcast
2:36 PM 33.8 °F 27.0 °F 30.2 °F 87% 29.51 in 9.0 mi ESE 8.1 mph - N/A   Overcast
2:56 PM 35.6 °F 29.9 °F 30.2 °F 81% 29.51 in 10.0 mi SE 6.9 mph - N/A   Mostly Cloudy
3:16 PM 35.6 °F 29.9 °F 30.2 °F 81% 29.51 in 10.0 mi ESE 6.9 mph - N/A   Mostly Cloudy
3:36 PM 35.6 °F 30.7 °F 32.0 °F 87% 29.52 in 8.0 mi South 5.8 mph - N/A   Overcast
3:56 PM 35.6 °F 28.6 °F 30.2 °F 81% 29.52 in 10.0 mi ESE 9.2 mph - N/A   Mostly Cloudy
4:16 PM 35.6 °F 29.9 °F 30.2 °F 81% 29.53 in 10.0 mi SE 6.9 mph - N/A   Overcast
4:36 PM 35.6 °F 29.9 °F 30.2 °F 81% 29.53 in 7.0 mi SE 6.9 mph - N/A   Overcast
4:56 PM 35.6 °F 29.9 °F 32.0 °F 87% 29.53 in 10.0 mi ESE 6.9 mph - N/A   Overcast
5:16 PM 35.6 °F 29.2 °F 30.2 °F 81% 29.53 in 10.0 mi SE 8.1 mph - N/A   Overcast
5:36 PM 35.6 °F 29.9 °F 32.0 °F 87% 29.53 in 10.0 mi SE 6.9 mph - N/A   Overcast
5:56 PM 35.6 °F 28.6 °F 32.0 °F 87% 29.53 in 10.0 mi ESE 9.2 mph - N/A   Overcast
6:36 PM 35.6 °F 29.2 °F 32.0 °F 87% 29.56 in 5.0 mi South 8.1 mph - N/A   Overcast
6:56 PM 35.6 °F 30.7 °F 30.2 °F 81% 29.56 in 9.0 mi SE 5.8 mph - N/A   Overcast
7:16 PM 35.6 °F 29.2 °F 30.2 °F 81% 29.56 in 7.0 mi SE 8.1 mph - N/A   Overcast
7:56 PM 35.6 °F 29.2 °F 32.0 °F 87% 29.57 in 10.0 mi SE 8.1 mph - N/A   Mostly Cloudy
8:16 PM 35.6 °F 30.7 °F 30.2 °F 81% 29.58 in 10.0 mi SE 5.8 mph - N/A   Overcast
8:36 PM 35.6 °F 30.7 °F 32.0 °F 87% 29.58 in 10.0 mi SE 5.8 mph - N/A   Overcast
8:56 PM 35.6 °F 29.9 °F 30.2 °F 81% 29.59 in 10.0 mi SE 6.9 mph - N/A   Overcast
9:16 PM 35.6 °F 32.8 °F 30.2 °F 81% 29.60 in 5.0 mi SSE 3.5 mph - N/A   Overcast
9:36 PM 35.6 °F 32.8 °F 30.2 °F 81% 29.60 in 10.0 mi East 3.5 mph - N/A   Overcast
9:56 PM 35.6 °F 29.9 °F 32.0 °F 87% 29.61 in 10.0 mi ESE 6.9 mph - N/A   Overcast
10:16 PM 35.6 °F 29.2 °F 32.0 °F 87% 29.61 in 10.0 mi SE 8.1 mph - N/A   Overcast
10:36 PM 37.4 °F 29.3 °F 32.0 °F 81% 29.61 in 10.0 mi SE 12.7 mph - N/A   Overcast
10:56 PM 35.6 °F 29.2 °F 30.2 °F 81% 29.62 in 10.0 mi ESE 8.1 mph - N/A   Mostly Cloudy
11:16 PM 35.6 °F 28.0 °F 32.0 °F 87% 29.63 in 10.0 mi SE 10.4 mph - N/A   Overcast
11:36 PM 35.6 °F 29.9 °F 32.0 °F 87% 29.64 in 10.0 mi SE 6.9 mph - N/A   Overcast
11:56 PM 35.6 °F 29.9 °F 30.2 °F 81% 29.64 in 7.0 mi SE 6.9 mph - N/A   Overcast